STARLINK-1664, 46553

Orbit data source: Space-Track

STARLINK-1664, 46553 is a payload satellite owned by SpaceX/Seattle (US) in LEO that was launched on Tue, 06 Oct 2020 UTC via an FALCON 9 launch vehicle from the Air Force Eastern Test Range (AFETR). Payloads include a variety of satellites, spacecraft, and rockets equipped with specific instruments for various scientific and technological missions. These include communications satellites like Starlink; space stations such as the ISS; scientific satellites like the Hubble; Earth observation satellites from companies like Planet Labs, Umbra, and HawkEye 360; GPS; miniature CubeSats for education and research; and military/defense satellites.

Loading next visibility...
STARLINK-1664 details
Identifier
46553, 2020-070X
Orbit
LEO
Last TLE update8 hours ago
Origin
Flag of USSpaceX/Seattle (US)
ManufacturerSpaceX/Seattle
MissionOperational Commercial Communications
Bus & MotorSTARLINK, Unknown motor
Mass260 kg wet, ~248 kg dry
Launch date (UTC)
2020-10-06 (4 years ago)
Launch vehicle
FALCON 9
Launch site
Air Force Eastern Test Range (AFETR)
Object type
Payload
Rocket body
Debris
Shape & HBRBox + 1 Pan, 8.86 m
Radar Cross Section13.562 m², Large (>1 m²)

Expand to show TLE details & history

TLE from 8 hours ago
0 STARLINK-1664
1 46553U 20070X   24361.14821426  .00031502  00000-0  21230-2 0  9997
2 46553  53.0547 315.3173 0001498  82.9851 277.1308 15.06423282233837
Epoch: 2024-12-26T03:33Z
Definitive object data (Epoch: 2024-12-26T03:33:25.712Z)
Latitude-0.00003°
Longitude166.82837°
Altitude547.891 km
Speed7.589 km/s
True Right ascension21h 01m 16s
True Declination0° 00' 00"
Sunlit
Object was in daylight at TLE epoch
Visualization TLE readout
Latitude39.56956°
Longitude-156.52878°
Altitude549.681 km
Speed7.593 km/s
Apparent Right ascension23h 17m 37s
Apparent Declination1° 47' 39"
Sunlit
Object is in daylight
Visualization observer readout
Local Sidereal Time11:06:27
Azimuth355.813° N
Elevation-48.212°
Doppler factor1
Orbital elements
Apogee altitude548.448 km
Perigee altitude546.373 km
Semi-major axis6,925.548 km
Eccentricity0.0001498
Inclination53.0547°
RAAN315.3173°
Arg. of periapsis82.9851°
True anomaly277.11377°
Mean anomaly277.1308°
Eccentric anomaly277.12228°
Mean motion3.76584 °/min
BSTAR0.002123
Orbital period95.6 mins
Loading maneuver chart data...
Loading historical data...
Loading historical data...
Loading historical data...
Loading historical data...
Loading historical data...
Loading historical data...
Loading historical data...

STARLINK-1664 Visibility forecast

Observer location: undefined°, undefined

Span
Click to sort rows by Start time (UTC) header in descending order
Start Az.
Max El. time (UTC)
Max El. Az.
Max El.
End time (UTC)
End Az.
5 mins2024-12-26 22:49:03.418Z175.06° S2024-12-26 22:52:03.418Z118.381° SE21.121°2024-12-26 22:54:03.418Z83.951° E
6 mins2024-12-27 00:28:03.418Z254.849° W2024-12-27 00:31:03.418Z335.762° NNW37.124°2024-12-27 00:34:03.418Z38.221° NE
6 mins2024-12-27 05:30:03.418Z334.732° NNW2024-12-27 05:33:03.418Z39.645° NE25.88°2024-12-27 05:36:03.418Z88.747° E
6 mins2024-12-27 07:10:03.418Z289.098° WNW2024-12-27 07:12:03.418Z237.615° WSW36.116°2024-12-27 07:16:03.418Z152.082° SSE
|